Preview of NWS' New Version of Forecast
This preview is not operational and should not be used for support decisions.

Regional Weather Roundup (RWR)

Issued by National Weather Service (NWS)

                            
000
ASUS45 KCYS 171210
RWRWY 

WYOMING REGIONAL WEATHER ROUNDUP
NATIONAL WEATHER SERVICE CHEYENNE WY
600 AM MDT SAT AUG 17 2019

NOTE:  "FAIR" INDICATES FEW OR NO CLOUDS BELOW 12,000 FEET
WITH NO SIGNIFICANT WEATHER AND/OR OBSTRUCTIONS TO VISIBILITY.

WYZ001-171300-
YELLOWSTONE NATIONAL PARK
  
CITY           SKY/WX    TMP DP  RH WIND       PRES   REMARKS
LK YELLOWSTONE   N/A     39  36  89 CALM      30.06F                  
6HR MIN TEMP:  38; 6HR MAX TEMP:  43;                                

W YELLOWSTONE  NOT AVBL                                               

$$
WYZ002>013-054>058-071-098>099-171300-
NORTHERN WYOMING
  
CITY           SKY/WX    TMP DP  RH WIND       PRES   REMARKS
JACKSON        FAIR      36  31  82 N5        30.01S WCI  32          
CODY           FAIR      53  46  77 NE12      29.92S                  
GREYBULL       FAIR      57  43  59 W6        29.82S                  
6HR MIN TEMP:  54; 6HR MAX TEMP:  66;                                

WORLAND        FAIR      50  43  77 S8        29.83S                  
6HR MIN TEMP:  48; 6HR MAX TEMP:  62;                                

SHERIDAN       FAIR      60  45  57 W15G25    29.86R                  
6HR MIN TEMP:  53; 6HR MAX TEMP:  61;                                

BUFFALO        FAIR      58  44  60 NW9       29.89R                  
6HR MIN TEMP:  57; 6HR MAX TEMP:  62;                                

GILLETTE       FAIR      52  47  83 CALM      29.83S                  
6HR MIN TEMP:  52; 6HR MAX TEMP:  58;                                

HULETT         PTSUNNY   52  43  71 SE9       29.84                   
NEWCASTLE      FAIR      57  50  77 CALM      29.84                   

$$
WYZ014>020-022>026-101>103-171300-
CENTRAL WYOMING
  
CITY           SKY/WX    TMP DP  RH WIND       PRES   REMARKS
BIG PINEY      FAIR      34  24  67 E3        30.07S                  
6HR MIN TEMP:  33; 6HR MAX TEMP:  46;                                

PINEDALE       FAIR      32  28  86 W7        30.08  WCI  26          
DUBOIS         FAIR      43  27  52 W14       30.01                   
LANDER         FAIR      53  21  28 CALM      29.92F                  
6HR MIN TEMP:  50; 6HR MAX TEMP:  64;                                

RIVERTON       FAIR      52  27  38 W8        29.91F                  
6HR MIN TEMP:  51; 6HR MAX TEMP:  62;                                

CASPER         FAIR      51  40  65 W12       29.91S                  
6HR MIN TEMP:  49; 6HR MAX TEMP:  55;                                

DOUGLAS        FAIR      54  51  90 N5        29.91R                  
6HR MIN TEMP:  53; 6HR MAX TEMP:  62;                                


$$
WYZ021-027>030-104>119-171300-
SOUTHERN WYOMING
  
CITY           SKY/WX    TMP DP  RH WIND       PRES   REMARKS
EVANSTON       FAIR      52  33  48 SW6       30.08F                  
6HR MIN TEMP:  50; 6HR MAX TEMP:  61;                                

KEMMERER       FAIR      46  30  53 N5        30.10                   
ROCK SPRINGS   FAIR      53  28  38 NE3       30.05S                  
6HR MIN TEMP:  52; 6HR MAX TEMP:  63;                                

DIXON          PTSUNNY   44  31  60 SE5       30.08R                  
RAWLINS        FAIR      53  25  33 SW10      30.04R                  
6HR MIN TEMP:  48; 6HR MAX TEMP:  65;                                

SARATOGA       FAIR      45  30  57 S9        30.07S                  
LARAMIE        FAIR      50  28  42 W9        30.06S                  
6HR MIN TEMP:  45; 6HR MAX TEMP:  56;                                

CHEYENNE       FAIR      53  33  46 W9        30.00R                  
6HR MIN TEMP:  53; 6HR MAX TEMP:  64;                                

TORRINGTON     FAIR      56  54  93 N6        29.84R                  
6HR MIN TEMP:  54; 6HR MAX TEMP:  61;                                

PINE BLUFFS    FAIR      54  41  62 W12       29.93S                  

$$